Time,TemperatureF,DewpointF,PressureIn,WindDirection,WindDirectionDegrees,WindSpeedMPH,WindSpeedGustMPH,Humidity,HourlyPrecipIn,Conditions,Clouds,dailyrainin,SoftwareType,DateUTC
2013-07-19 00:33:00,74.0,-99.9,29.98,WSW,252,-999.0,-999.0,-999,0.00,,,-99.99,,2013-07-19 04:33:00,
2013-07-19 00:44:00,74.0,-99.9,29.98,WSW,252,-999.0,-999.0,-999,0.00,,,-99.99,,2013-07-19 04:44:00,
2013-07-19 00:52:00,73.0,-99.9,29.98,WSW,252,-999.0,-999.0,-999,0.00,,,-99.99,,2013-07-19 04:52:00,
2013-07-19 01:32:00,73.0,-99.9,29.98,WSW,252,-999.0,-999.0,-999,0.00,,,-99.99,,2013-07-19 05:32:00,
2013-07-19 01:43:00,73.0,-99.9,29.98,WSW,252,-999.0,-999.0,-999,0.00,,,-99.99,,2013-07-19 05:43:00,
2013-07-19 01:53:00,73.0,-99.9,29.97,WSW,252,-999.0,-999.0,-999,0.00,,,-99.99,,2013-07-19 05:53:00,
2013-07-19 02:33:00,73.0,-99.9,29.97,WSW,252,-999.0,-999.0,-999,0.00,,,-99.99,,2013-07-19 06:33:00,
2013-07-19 02:43:00,73.0,-99.9,29.97,WSW,252,-999.0,-999.0,-999,0.00,,,-99.99,,2013-07-19 06:43:00,
2013-07-19 02:53:00,74.0,-99.9,29.97,WSW,252,-999.0,-999.0,-999,0.00,,,-99.99,,2013-07-19 06:53:00,
2013-07-19 03:33:00,74.0,-99.9,29.97,WSW,252,-999.0,-999.0,-999,0.00,,,-99.99,,2013-07-19 07:33:00,
2013-07-19 03:43:00,74.0,-99.9,29.97,WSW,252,-999.0,-999.0,-999,0.00,,,-99.99,,2013-07-19 07:43:00,
2013-07-19 03:52:00,74.0,-99.9,29.97,WSW,252,-999.0,-999.0,-999,0.00,,,-99.99,,2013-07-19 07:52:00,
2013-07-19 04:43:00,74.0,-99.9,29.97,WSW,252,-999.0,-999.0,-999,0.00,,,-99.99,,2013-07-19 08:43:00,
2013-07-19 04:52:00,74.0,-99.9,29.96,WSW,252,-999.0,-999.0,-999,0.00,,,-99.99,,2013-07-19 08:52:00,
2013-07-19 05:32:00,74.0,-99.9,29.96,WSW,252,-999.0,-999.0,-999,0.00,,,-99.99,,2013-07-19 09:32:00,
2013-07-19 05:43:00,74.0,-99.9,29.96,WSW,252,-999.0,-999.0,-999,0.00,,,-99.99,,2013-07-19 09:43:00,
2013-07-19 06:33:00,73.0,-99.9,29.96,WSW,252,-999.0,-999.0,-999,0.00,,,-99.99,,2013-07-19 10:33:00,
2013-07-19 06:43:00,73.0,-99.9,29.96,WSW,252,-999.0,-999.0,-999,0.00,,,-99.99,,2013-07-19 10:43:00,
2013-07-19 06:52:00,73.0,-99.9,29.96,WSW,252,-999.0,-999.0,-999,0.00,,,-99.99,,2013-07-19 10:52:00,
2013-07-19 07:33:00,75.0,-99.9,29.95,WSW,252,-999.0,-999.0,-999,0.00,,,-99.99,,2013-07-19 11:33:00,
2013-07-19 07:43:00,75.0,-99.9,29.95,WSW,252,-999.0,-999.0,-999,0.00,,,-99.99,,2013-07-19 11:43:00,
2013-07-19 07:52:00,75.0,-99.9,29.95,WSW,252,-999.0,-999.0,-999,0.00,,,-99.99,,2013-07-19 11:52:00,
2013-07-19 08:33:00,78.0,-99.9,29.96,NW,319,4.0,8.0,-999,0.00,,,-99.99,,2013-07-19 12:33:00,
2013-07-19 08:44:00,78.0,-99.9,29.96,NW,319,4.0,8.0,-999,0.00,,,-99.99,,2013-07-19 12:44:00,
2013-07-19 08:52:00,82.0,-99.9,29.97,WNW,299,6.0,11.0,-999,0.00,,,-99.99,,2013-07-19 12:52:00,
2013-07-19 09:32:00,82.0,-99.9,29.97,WNW,299,6.0,11.0,-999,0.00,,,-99.99,,2013-07-19 13:32:00,
2013-07-19 09:43:00,82.0,-99.9,29.97,WNW,299,6.0,11.0,-999,0.00,,,-99.99,,2013-07-19 13:43:00,
2013-07-19 09:53:00,84.0,-99.9,29.96,WSW,245,3.0,8.0,-999,0.00,,,-99.99,,2013-07-19 13:53:00,
2013-07-19 10:43:00,84.0,-99.9,29.96,WSW,245,3.0,8.0,-999,0.00,,,-99.99,,2013-07-19 14:43:00,
2013-07-19 11:52:00,89.0,-99.9,29.93,NW,311,7.0,10.0,-999,0.00,,,-99.99,,2013-07-19 15:52:00,
2013-07-19 12:43:00,89.0,-99.9,29.93,NW,311,7.0,10.0,-999,0.00,,,-99.99,,2013-07-19 16:43:00,
2013-07-19 13:43:00,90.0,-99.9,29.92,WNW,292,8.0,10.0,-999,0.00,,,-99.99,,2013-07-19 17:43:00,
2013-07-19 13:52:00,90.0,-99.9,29.92,WNW,292,8.0,10.0,-999,0.00,,,-99.99,,2013-07-19 17:52:00,
2013-07-19 14:43:00,90.0,-99.9,29.89,NW,311,3.0,17.0,-999,0.00,,,-99.99,,2013-07-19 18:43:00,
2013-07-19 15:32:00,91.0,-99.9,29.87,WNW,288,7.0,14.0,-999,0.00,,,-99.99,,2013-07-19 19:32:00,
2013-07-19 15:43:00,91.0,-99.9,29.87,WNW,288,7.0,14.0,-999,0.00,,,-99.99,,2013-07-19 19:43:00,
2013-07-19 15:52:00,91.0,-99.9,29.87,WNW,288,7.0,14.0,-999,0.00,,,-99.99,,2013-07-19 19:52:00,
2013-07-19 16:33:00,91.0,-99.9,29.85,WNW,293,7.0,16.0,-999,0.00,,,-99.99,,2013-07-19 20:33:00,
2013-07-19 16:43:00,91.0,-99.9,29.85,WNW,293,7.0,16.0,-999,0.00,,,-99.99,,2013-07-19 20:43:00,
2013-07-19 16:52:00,91.0,-99.9,29.85,WNW,293,7.0,16.0,-999,0.00,,,-99.99,,2013-07-19 20:52:00,
2013-07-19 17:32:00,92.0,-99.9,29.83,WSW,246,-999.0,13.0,-999,0.00,,,-99.99,,2013-07-19 21:32:00,
2013-07-19 17:43:00,92.0,-99.9,29.83,WSW,246,-999.0,13.0,-999,0.00,,,-99.99,,2013-07-19 21:43:00,
2013-07-19 17:52:00,91.0,-99.9,29.81,NW,309,6.0,10.0,-999,0.00,,,-99.99,,2013-07-19 21:52:00,
2013-07-19 18:32:00,91.0,-99.9,29.81,NW,309,6.0,10.0,-999,0.00,,,-99.99,,2013-07-19 22:32:00,
2013-07-19 18:43:00,91.0,-99.9,29.81,NW,309,6.0,10.0,-999,0.00,,,-99.99,,2013-07-19 22:43:00,
2013-07-19 19:33:00,86.0,-99.9,29.81,WSW,239,-999.0,3.0,-999,0.00,,,-99.99,,2013-07-19 23:33:00,
2013-07-19 19:43:00,86.0,-99.9,29.81,WSW,239,-999.0,3.0,-999,0.00,,,-99.99,,2013-07-19 23:43:00,
2013-07-19 19:52:00,86.0,-99.9,29.81,WSW,239,-999.0,3.0,-999,0.00,,,-99.99,,2013-07-19 23:52:00,
2013-07-19 20:32:00,85.0,-99.9,29.82,West,279,-999.0,4.0,-999,0.00,,,-99.99,,2013-07-20 00:32:00,
2013-07-19 20:43:00,85.0,-99.9,29.82,West,279,-999.0,4.0,-999,0.00,,,-99.99,,2013-07-20 00:43:00,
2013-07-19 21:52:00,79.0,-99.9,29.84,WSW,242,-999.0,-999.0,-999,0.02,,,-99.99,,2013-07-20 01:52:00,
2013-07-19 22:33:00,79.0,-99.9,29.84,WSW,242,-999.0,-999.0,-999,0.02,,,-99.99,,2013-07-20 02:33:00,
2013-07-19 22:44:00,79.0,-99.9,29.84,WSW,242,-999.0,-999.0,-999,0.02,,,-99.99,,2013-07-20 02:44:00,
2013-07-19 22:52:00,78.0,-99.9,29.81,WSW,245,-999.0,3.0,-999,0.01,,,-99.99,,2013-07-20 02:52:00,
2013-07-19 23:44:00,78.0,-99.9,29.81,WSW,245,-999.0,3.0,-999,0.01,,,-99.99,,2013-07-20 03:44:00,
2013-07-19 23:52:00,77.0,-99.9,29.82,West,278,5.0,8.0,-999,0.00,,,-99.99,,2013-07-20 03:52:00,